Location: Homewood
(41.1836°S, 175.9581°E)
Time: 02:19:38
(UTC+00:00)

SMAP - Pass Details

Date: 18 April 2024
Orbit: 681 x 683 km, 98.1° (Epoch: 22 May)

Event Time Altitude Azimuth Distance (km) Brightness Sun altitude
Rises 17:07:53 0° 32° (NNE) 3,039 6.8 -20.0°
Reaches altitude 10° 17:10:12 10° 39° (NE) 2,132 6.1 -19.6°
Maximum altitude 17:14:36 43° 109° (ESE) 975 4.3 -18.7°
Drops below altitude 10° 17:19:03 10° 179° (S) 2,160 5.7 -17.9°
Sets 17:21:24 0° 185° (S) 3,084 6.4 -17.5°
